ROMMA est une association bénévole à but non lucratif. Votre soutien est indispensable : ADHERER à ROMMA ou FAIRE un DON

Le Versoud - (38, Isère)

Vallée du Grésivaudan (220 m)   Longitude: 05° 51' 44" E   Latitude: 45° 13' 06" N Station partenaire n°6
 

Détail journalier du     <<     >>

Température Humidité Pression Vent Dir Rafale Dir. rafale Ensol.
Heure (°C) (%) (hPa) (km/h) (km/h) (min)
01:00 15.383101500---0
02:00 14.985101500---0
03:00 14.984101500---0
04:00 14.785101500---0
05:00 14.486101500---0
06:00 14.387101400---0
07:00 14.189101400---0
08:00 13.989101300---0
09:00 14.288101300---0
10:00 14.190101506SE0
11:00 13.9941015011NE0
12:00 13.89410161---13O0
13:00 13.994101706NE0
14:00 13.3941017010NE0
15:00 13.194101806NE0
16:00 13.59310181NE11NE0
17:00 14.189101808NE10
18:00 15.184101806NNE55
19:00 14.089101800---30
20:00 13.193101900---0
21:00 12.094101900---0
22:00 10.994101900---0
23:00 10.195101900---0
minuit 9.295102000---0

Graphique du 09-10-2019

 

Serveur OMMA